map of VLC home
VLC - Airport
Location
City:  Valencia, Valenciana, Spain
Name:Manises
ICAO:LEVC
IATA:VLC

Details
Type:Airport (Aerodrome, Airfield)
Use:Public/Civil
Latitude:3929'22"N (39.489314)
Longitude:028'54"W (-0.481624)
Datum:WGS 1984
Elevation:225 ft (69 m)
Variation:0.26E (WMM2015 magnetic declination)
0.11 annual change
Runways:2
Longest:8858 × 148 ft (2700 × 45 m), paved

Time
Time Zone:UTC+1 (DST+2)
Local Time:

Weather
METAR:LEVC 230930Z 13003KT 9999 FEW030 29/19 Q1016 NOSIG
TAF:LEVC 230500Z 2306/2406 VRB03KT 9999 FEW040 TX31/2313Z TN21/2406Z
BECMG 2310/2312 12011KT
BECMG 2318/2320 VRB03KT

Related Locations
Nearby:
Farthest:GIS: 12337 mi / 19855 km
Gisborne, GIS, NZ

Find:

   beyond  
but within

Other Information
Maps:
NOTAMs:
Links:
Sources:

  
  • flag of Spain
  • flag of Valenciana
  

Sectional Chart

Flight Planning
at skyvector.com

Satellite Image

Google Maps Satellite view

 

Copyright © 2004-2018 Karl L. Swartz. All rights reserved.
The Great Circle Mapper name and logo are trademarks of the Great Circle Mapper.
All other trademarks mentioned herein belong to their respective owners.
Please see credits for attibutions and further copyright information.

  Follow gcmap on Facebook Follow gcmap on Twitter Follow gcmap on Google+ GCmap on LinkedIn

hCard Microformat

Geo Microformat